AEHF-4 (USA 288) (43651 NORAD) Tracking and Keplerian Element Data

This shows tracking and keplerian element data for the satellite.

Feedback or suggestion? Click here.




ElementValue
Catalog43651
NameAEHF-4 (USA 288)
Epoch Orbit290
Epoch Day193.844304
Epoch Year2019
RAAN311.6216
Inclination4.547
Eccentricity0.0003045
Argument of Perigee130.167
Mean Anonmoly58.3514
Mean Motion1.00273973
Decay Rate-1.66E-06
L11 43651U 18079A 19193.84430400 -.00000166 00000-0 00000+0 0 9993
L22 43651 4.5470 311.6216 0003045 130.1670 58.3514 1.00273973 2900

Live tracking and technical data element details for AEHF-4 (USA 288) (NORAD 43651). AEHF-4 (USA 288) can be tracked NOW for your location showing map with azimuth and elevation plus other details from your city location.

Track the satellite on the map from your city or location and see movement details for azimuth, elevation, latitude, longitude, range, height, and movement on the map or in text.







IsCatalogInMostPopularTable: catalog: 43651, numindb: 14
Update: records affected: 1



GetName: 43651 AEHF-4 (USA 288)

Hit Count: updated at: Wed, 17 Jul 2019 08:41:58 GMT